EW3770 Weather Reports


Display with metric or nautical units.
time (UTC)temp
F
wind
direction
speed
MPH
gust
MPH
rain 1hr
in
rain 24hr
in
rain mn
in
humidity
%
barometer
mb
20260508133603 57 360 0.0 1.0 0.00 0.00 0.00 52 1027.4
20260508132703 55 0 0.0 0.0 0.00 0.00 0.00 56 1027.4
20260508131824 52 0 0.0 0.0 0.00 0.00 0.00 59 1027.4
20260508130903 51 0 0.0 0.0 0.00 0.00 0.00 59 1027.4
20260508130003 51 350 0.0 2.0 0.00 0.00 0.00 59 1027.4
20260508125403 51 0 0.0 0.0 0.00 0.00 0.00 59 1027.4
20260508124524 50 0 0.0 0.0 0.00 0.00 0.00 59 1027.4
20260508123603 50 360 0.0 1.0 0.00 0.00 0.00 59 1027.4
20260508122703 50 0 0.0 0.0 0.00 0.00 0.00 59 1027.4
20260508121803 50 0 0.0 0.0 0.00 0.00 0.00 60 1027.4
20260508120924 50 0 0.0 0.0 0.00 0.00 0.00 60 1027.4
20260508120003 50 360 0.0 2.0 0.00 0.00 0.00 58 1027.4
20260508115403 51 360 0.0 4.0 0.00 0.00 0.00 58 1027.4
20260508114524 51 360 0.0 2.0 0.00 0.00 0.00 56 1027.4
20260508113603 51 0 0.0 0.0 0.00 0.00 0.00 56 1027.4
20260508112703 52 0 0.0 0.0 0.00 0.00 0.00 54 1027.4
20260508111803 52 360 0.0 3.0 0.00 0.00 0.00 53 1027.4
20260508110903 53 329 0.0 1.0 0.00 0.00 0.00 52 1027.4
20260508110003 53 0 0.0 0.0 0.00 0.00 0.00 51 1027.4
20260508105403 53 356 0.0 2.0 0.00 0.00 0.00 51 1027.4
20260508104503 53 357 0.0 2.0 0.00 0.00 0.00 53 1027.4
20260508103603 53 0 0.0 0.0 0.00 0.00 0.00 53 1027.4
20260508102703 53 0 0.0 0.0 0.00 0.00 0.00 54 1027.4
20260508101803 53 0 0.0 0.0 0.00 0.00 0.00 54 1027.4
20260508100903 52 0 0.0 0.0 0.00 0.00 0.00 54 1027.4
20260508100003 52 311 0.0 2.0 0.00 0.00 0.00 55 1027.4
20260508095403 52 211 1.0 3.0 0.00 0.00 0.00 56 1027.4
20260508094524 52 0 0.0 0.0 0.00 0.00 0.00 57 1027.4
20260508093603 52 360 0.0 1.0 0.00 0.00 0.00 57 1027.4
20260508092724 52 359 0.0 2.0 0.00 0.00 0.00 56 1027.4
20260508091803 53 360 0.0 2.0 0.00 0.00 0.00 55 1027.4
20260508090903 53 0 0.0 0.0 0.00 0.00 0.00 54 1027.4
20260508090003 54 0 0.0 0.0 0.00 0.00 0.00 54 1027.4
20260508085403 54 0 0.0 0.0 0.00 0.00 0.00 53 1027.4
20260508084503 55 360 0.0 1.0 0.00 0.00 0.00 51 1027.4
20260508083603 56 360 0.0 3.0 0.00 0.00 0.00 48 1027.4
20260508082703 56 357 0.0 2.0 0.00 0.00 0.00 47 1027.4
20260508081803 56 360 0.0 2.0 0.00 0.00 0.00 48 1027.4
20260508080903 56 360 1.0 4.0 0.00 0.00 0.00 47 1027.4
20260508080024 56 360 2.0 4.0 0.00 0.00 0.00 47 1027.4
20260508075404 55 360 2.0 4.0 0.00 0.00 0.00 47 1027.4
20260508074503 56 360 2.0 4.0 0.00 0.00 0.00 48 1027.4
20260508073603 56 360 1.0 3.0 0.00 0.00 0.00 48 1027.4
20260508072703 56 358 1.0 2.0 0.00 0.00 0.00 48 1027.4
20260508071824 56 359 1.0 3.0 0.00 0.00 0.00 49 1027.4
20260508070903 56 0 0.0 0.0 0.00 0.00 0.00 49 1027.4
20260508070003 57 0 0.0 0.0 0.00 0.00 0.00 48 1027.4
20260508065403 57 0 0.0 0.0 0.00 0.00 0.00 48 1027.4
20260508064503 58 0 0.0 0.0 0.00 0.00 0.00 46 1027.4
20260508063603 58 0 0.0 0.0 0.00 0.00 0.00 45 1027.4
20260508062704 58 0 0.0 0.0 0.00 0.00 0.00 45 1027.4
20260508061803 58 0 0.0 0.0 0.00 0.00 0.00 45 1027.4
20260508060903 58 355 0.0 2.0 0.00 0.00 0.00 45 1027.4
20260508060004 59 360 0.0 2.0 0.00 0.00 0.00 45 1027.4
20260508055403 59 0 0.0 0.0 0.00 0.00 0.00 44 1027.4
20260508054503 60 0 0.0 0.0 0.00 0.00 0.00 44 1027.4
20260508053603 60 0 0.0 0.0 0.00 0.00 0.00 43 1027.4
20260508052703 61 0 0.0 0.0 0.00 0.00 0.00 41 1027.4
20260508051803 61 0 0.0 0.0 0.00 0.00 0.00 40 1027.4
20260508050903 61 360 0.0 4.0 0.00 0.00 0.00 39 1027.4
20260508050004 62 360 2.0 5.0 0.00 0.00 0.00 38 1027.4
20260508045403 62 360 2.0 5.0 0.00 0.00 0.00 38 1027.4
20260508044503 62 360 3.0 5.0 0.00 0.00 0.00 38 1027.4
20260508043603 62 360 3.0 4.0 0.00 0.00 0.00 38 1027.4
20260508042703 63 360 3.0 5.0 0.00 0.00 0.00 37 1027.4
20260508041803 63 360 2.0 4.0 0.00 0.00 0.00 37 1027.4
20260508040903 64 360 2.0 5.0 0.00 0.00 0.00 37 1027.4
20260508040024 64 346 1.0 4.0 0.00 0.00 0.00 37 1027.4
20260508035403 65 355 1.0 4.0 0.00 0.00 0.00 36 1027.4
20260508034503 65 360 1.0 4.0 0.00 0.00 0.00 35 1027.4
20260508033603 66 360 0.0 3.0 0.00 0.00 0.00 34 1027.4
20260508032703 66 360 0.0 1.0 0.00 0.00 0.00 34 1027.4
20260508031803 67 360 0.0 2.0 0.00 0.00 0.00 34 1027.4
20260508030903 68 0 0.0 0.0 0.00 0.00 0.00 31 1027.4
20260508030004 70 0 0.0 0.0 0.00 0.00 0.00 29 1027.4
20260508025403 71 0 0.0 0.0 0.00 0.00 0.00 28 1027.4
20260508024503 72 360 0.0 1.0 0.00 0.00 0.00 29 1027.4
20260508023603 72 0 0.0 0.0 0.00 0.00 0.00 28 1027.4
20260508022724 73 360 0.0 1.0 0.00 0.00 0.00 26 1027.4
20260508021803 74 0 0.0 0.0 0.00 0.00 0.00 27 1027.4
20260508020924 74 0 0.0 0.0 0.00 0.00 0.00 25 1027.4
20260508020004 74 360 0.0 1.0 0.00 0.00 0.00 25 1027.4
20260508015403 74 360 0.0 2.0 0.00 0.00 0.00 24 1027.4
20260508014525 74 91 2.0 4.0 0.00 0.00 0.00 23 1027.4
20260508013603 75 87 2.0 6.0 0.00 0.00 0.00 23 1027.4
20260508012703 75 88 2.0 6.0 0.00 0.00 0.00 22 1027.4
20260508011803 75 86 1.0 5.0 0.00 0.00 0.00 23 1027.4
20260508010903 75 77 3.0 7.0 0.00 0.00 0.00 22 1027.4
20260508010004 75 67 1.0 2.0 0.00 0.00 0.00 22 1027.4
20260508005403 75 64 0.0 2.0 0.00 0.00 0.00 22 1027.4
20260508004503 75 69 1.0 4.0 0.00 0.00 0.00 24 1027.4
20260508003603 75 57 2.0 6.0 0.00 0.00 0.00 23 1027.4
20260508002724 75 46 2.0 6.0 0.00 0.00 0.00 23 1027.4
20260508001803 75 21 3.0 8.0 0.00 0.00 0.00 23 1027.4
20260508000903 75 19 4.0 10.0 0.00 0.00 0.00 23 1027.4
20260508000003 75 48 3.0 9.0 0.00 0.00 0.00 22 1027.4
20260507235403 75 50 3.0 10.0 0.00 0.00 0.00 22 1027.4
20260507234503 76 35 2.0 7.0 0.00 0.00 0.00 21 1027.4
20260507233603 76 17 2.0 8.0 0.00 0.00 0.00 22 1027.4
20260507232703 76 75 2.0 6.0 0.00 0.00 0.00 22 1027.4
20260507231803 76 60 2.0 5.0 0.00 0.00 0.00 22 1027.4
20260507230903 76 28 3.0 13.0 0.00 0.00 0.00 23 1027.4
20260507230024 76 44 5.0 12.0 0.00 0.00 0.00 23 1027.4
20260507225403 76 35 5.0 12.0 0.00 0.00 0.00 22 1027.4
20260507224524 76 28 4.0 11.0 0.00 0.00 0.00 22 1027.4
20260507223604 76 350 3.0 10.0 0.00 0.00 0.00 22 1027.4
20260507222703 76 353 5.0 11.0 0.00 0.00 0.00 24 1027.4
20260507221803 76 33 4.0 9.0 0.00 0.00 0.00 23 1027.4
20260507220924 76 7 3.0 10.0 0.00 0.00 0.00 22 1027.4
20260507220004 76 3 2.0 7.0 0.00 0.00 0.00 21 1027.4
20260507215403 76 31 3.0 9.0 0.00 0.00 0.00 22 1027.4
20260507214503 77 334 3.0 11.0 0.00 0.00 0.00 22 1027.4
20260507213624 76 354 3.0 10.0 0.00 0.00 0.00 23 1027.4
20260507212724 77 44 4.0 10.0 0.00 0.00 0.00 21 1027.4
20260507211803 77 7 5.0 10.0 0.00 0.00 0.00 21 1027.4
20260507210903 77 338 3.0 11.0 0.00 0.00 0.00 21 1027.4
20260507210004 77 45 4.0 10.0 0.00 0.00 0.00 22 1027.4
20260507205403 77 47 2.0 6.0 0.00 0.00 0.00 21 1027.4
20260507204503 75 66 2.0 7.0 0.00 0.00 0.00 24 1027.4
20260507203603 75 42 4.0 9.0 0.00 0.00 0.00 20 1027.4
20260507202703 76 65 1.0 6.0 0.00 0.00 0.00 22 1027.4
20260507201803 75 103 2.0 8.0 0.00 0.00 0.00 21 1027.4
20260507200903 75 120 4.0 12.0 0.00 0.00 0.00 21 1027.4
20260507200003 75 131 2.0 11.0 0.00 0.00 0.00 24 1027.4
20260507195403 74 129 1.0 8.0 0.00 0.00 0.00 25 1027.4
20260507194503 74 134 2.0 12.0 0.00 0.00 0.00 25 1027.4
20260507193603 74 172 1.0 6.0 0.00 0.00 0.00 28 1027.4
20260507192703 73 142 2.0 10.0 0.00 0.00 0.00 26 1027.4
20260507191803 72 117 2.0 8.0 0.00 0.00 0.00 27 1027.4
20260507190903 71 139 3.0 12.0 0.00 0.00 0.00 28 1027.4
20260507190004 71 151 3.0 14.0 0.00 0.00 0.00 25 1027.4
20260507185424 70 146 4.0 12.0 0.00 0.00 0.00 28 1027.4
20260507184503 71 160 3.0 10.0 0.00 0.00 0.00 28 1027.4
20260507183603 70 150 3.0 10.0 0.00 0.00 0.00 27 1027.4
20260507182703 69 37 2.0 8.0 0.00 0.00 0.00 31 1027.4
20260507181803 69 126 2.0 6.0 0.00 0.00 0.00 28 1027.4
20260507180903 68 132 3.0 10.0 0.00 0.00 0.00 28 1027.4
20260507180024 68 144 4.0 11.0 0.00 0.00 0.00 28 1027.4
20260507175403 68 152 4.0 11.0 0.00 0.00 0.00 28 1027.4
20260507174503 66 161 4.0 10.0 0.00 0.00 0.00 28 1027.4
20260507173603 65 53 4.0 13.0 0.00 0.00 0.00 31 1027.4
20260507172703 64 1 3.0 11.0 0.00 0.00 0.00 32 1027.4
20260507171803 62 360 4.0 11.0 0.00 0.00 0.00 33 1027.4
20260507170903 61 360 3.0 8.0 0.00 0.00 0.00 35 1027.4
20260507170004 60 7 3.0 8.0 0.00 0.00 0.00 35 1027.4
20260507165403 60 172 4.0 8.0 0.00 0.00 0.00 36 1027.4
20260507164503 59 171 4.0 10.0 0.00 0.00 0.00 37 1027.4
20260507163603 59 171 4.0 10.0 0.00 0.00 0.00 38 1027.4
20260507162703 58 102 5.0 8.0 0.00 0.00 0.00 41 1027.4
20260507161824 58 360 4.0 10.0 0.00 0.00 0.00 41 1027.4
20260507160903 57 172 5.0 10.0 0.00 0.00 0.00 42 1027.4
20260507160003 56 174 5.0 10.0 0.00 0.00 0.00 44 1027.4
20260507155403 56 173 4.0 9.0 0.00 0.00 0.00 45 1027.4
20260507154503 56 177 4.0 9.0 0.00 0.00 0.00 46 1027.4
20260507153603 55 174 4.0 10.0 0.00 0.00 0.00 46 1027.4
20260507152703 55 177 4.0 9.0 0.00 0.00 0.00 48 1027.4
20260507151803 55 174 5.0 9.0 0.00 0.00 0.00 51 1027.4
20260507150903 54 2 4.0 11.0 0.00 0.00 0.00 51 1027.4
20260507150003 54 360 5.0 10.0 0.00 0.00 0.00 51 1027.4
20260507145403 54 360 5.0 11.0 0.00 0.00 0.00 50 1027.4
20260507144503 53 360 4.0 9.0 0.00 0.00 0.00 49 1027.4
20260507143603 54 1 4.0 10.0 0.00 0.00 0.00 47 1027.4
20260507142703 54 360 4.0 10.0 0.00 0.00 0.00 45 1027.4
20260507141803 54 360 4.0 9.0 0.00 0.00 0.00 44 1027.4
20260507140903 54 360 4.0 10.0 0.00 0.00 0.00 43 1027.4
20260507140003 54 360 4.0 9.0 0.00 0.00 0.00 45 1027.4
20260507135424 54 360 4.0 9.0 0.00 0.00 0.00 46 1027.4
20260507134503 53 360 4.0 10.0 0.00 0.00 0.00 51 1027.4